Lapse_Rate
7.0 7.1 6.8 6.8 6.8 6.7 6.9 6.8 6.6 6.2 6.1 6.1 6.0 5.8 5.8 5.8 6.0 6.2 6.2 6.3 6.1 6.1 6.1 6.1 6.1 6.1 6.1 6.1 6.0 6.0 5.9 5.9 5.9 5.9 5.9 5.9 5.9 5.8 5.8 5.8 5.9 6.0 5.9
6.9 7.1 7.5 7.1 7.0 6.9 7.0 6.9 6.6 6.4 6.1 5.9 5.8 5.7 5.8 5.8 6.0 5.9 6.1 6.1 6.1 6.1 6.1 6.1 6.1 6.1 6.1 6.1 6.1 6.0 6.0 5.9 5.9 5.8 5.9 5.9 6.0 5.8 5.8 5.8 5.8 5.9 5.9
7.6 7.2 7.4 7.4 7.0 7.0 7.0 6.9 6.8 6.4 5.9 5.8 5.8 6.0 6.1 6.0 6.0 5.9 6.0 5.9 6.0 6.0 6.0 6.1 6.1 6.1 6.1 6.0 6.0 5.9 5.9 5.9 5.9 5.8 5.8 5.8 6.0 5.8 5.7 5.7 5.7 5.8 5.8
7.5 7.3 7.5 7.4 7.1 7.0 7.0 6.9 6.8 6.7 6.0 5.8 5.9 5.9 5.7 5.6 5.7 5.7 5.9 5.9 5.9 6.0 6.1 6.1 6.1 6.1 6.1 6.1 6.0 6.0 5.9 5.9 5.8 5.9 5.8 5.8 5.8 5.9 6.1 5.7 5.7 5.8 5.8
7.5 7.5 7.5 7.4 7.1 7.0 6.9 6.7 6.7 6.6 6.1 5.9 6.0 5.7 5.5 5.5 5.8 6.0 6.1 6.0 6.0 6.0 6.0 6.0 6.1 6.1 6.1 6.1 6.0 6.1 6.1 6.1 6.0 5.9 5.9 5.8 5.8 5.8 5.8 6.1 6.2 5.8 5.8
7.4 7.5 7.6 7.3 7.0 6.9 6.8 6.5 6.5 6.5 6.0 5.9 5.9 5.8 5.5 5.6 6.1 6.1 6.0 6.1 6.1 6.0 6.0 6.0 6.1 6.1 6.1 6.1 6.1 6.0 6.0 6.0 6.0 6.0 6.0 5.9 5.8 5.6 5.6 5.6 6.0 6.3 6.3
7.4 7.6 7.5 7.3 7.0 7.0 6.8 6.4 6.4 6.4 6.1 5.9 5.7 5.7 5.6 5.8 6.2 6.0 6.0 6.0 6.0 5.9 5.8 5.8 5.9 6.0 6.0 5.9 5.9 5.9 6.0 5.9 6.0 6.0 6.0 5.9 5.9 5.9 5.8 5.7 5.8 5.8 6.2
7.7 7.8 7.6 7.3 7.0 7.1 6.9 6.5 6.4 6.4 6.2 6.1 6.0 6.0 6.0 6.0 6.3 6.1 6.0 6.0 6.0 5.9 5.9 5.9 6.0 6.0 5.9 5.7 5.7 5.7 5.7 5.8 5.9 5.9 6.0 5.9 5.9 6.0 6.0 5.9 5.8 5.9 5.9
7.7 8.0 7.6 7.2 7.1 6.9 6.8 6.6 6.6 6.6 6.5 6.4 6.2 6.2 6.1 6.2 6.2 6.1 6.0 6.0 5.9 6.0 6.1 6.0 6.0 6.0 5.8 5.7 5.7 5.6 5.7 5.8 5.8 5.8 5.9 6.0 5.9 6.0 6.0 6.0 5.9 5.9 5.9
7.3 7.1 6.9 6.8 6.7 6.6 6.8 6.8 6.7 6.4 6.3 6.3 6.2 6.3 6.3 6.2 6.2 6.2 6.1 6.0 6.0 6.0 6.0 5.9 5.8 5.9 5.7 5.6 5.6 5.7 5.6 5.7 5.8 5.8 5.9 5.9 5.9 6.0 6.0 6.1 6.0 5.9 6.0
7.0 6.8 6.5 6.4 6.5 6.5 6.7 6.7 6.5 6.5 6.6 6.6 6.5 6.5 6.3 6.1 6.0 6.0 5.8 5.8 5.9 5.9 5.9 5.9 5.9 5.8 5.9 5.9 5.7 5.7 5.6 5.5 5.4 5.5 5.5 5.6 5.5 5.7 5.8 5.8 5.9 5.8 5.8
6.8 6.7 6.8 6.8 7.0 6.8 6.7 6.8 6.9 6.8 6.8 6.8 6.5 6.5 6.5 6.3 6.0 5.7 5.5 5.6 5.7 5.6 5.7 5.8 5.7 5.9 5.8 5.6 5.6 5.5 5.4 5.2 5.3 5.2 5.3 5.4 5.4 5.5 5.6 5.6 5.6 5.7 5.8
6.5 6.6 6.4 6.4 6.6 6.6 6.5 6.5 6.3 6.4 6.5 6.4 6.2 6.0 5.8 5.6 5.5 5.3 5.3 5.4 5.5 5.5 5.5 5.6 5.6 5.6 5.8 5.8 5.7 5.4 5.3 5.4 5.5 5.3 5.1 5.1 5.2 5.4 5.3 5.2 5.3 5.4 5.3
5.8 5.8 5.8 5.9 6.1 6.5 6.4 6.1 6.1 6.2 6.2 6.3 6.1 6.0 5.7 5.4 5.3 5.4 5.4 5.3 5.1 5.1 5.2 5.1 5.0 5.3 5.3 5.0 5.0 5.2 5.1 5.0 5.0 5.0 5.0 5.1 5.1 5.4 5.3 5.3 5.3 5.1 5.1
4.7 5.2 5.5 5.6 5.5 5.7 5.6 5.7 5.8 5.9 5.7 5.7 5.8 5.6 5.2 5.1 5.1 5.1 5.1 4.9 4.8 4.7 4.4 4.3 4.3 4.4 4.6 4.7 4.7 4.8 4.9 4.8 4.9 4.8 5.0 5.1 5.0 5.1 5.2 4.9 5.0 5.0 5.0
3.6 3.9 3.9 4.0 4.0 4.0 4.1 4.2 4.4 4.4 4.7 4.5 4.6 4.6 4.5 4.4 4.5 4.1 4.2 4.1 4.1 4.1 4.1 4.0 4.0 4.1 4.0 4.2 4.3 4.6 4.6 4.8 4.9 4.9 5.0 5.1 5.1 5.0 5.0 5.1 5.2 5.2 5.2
3.2 3.2 3.2 3.2 3.4 3.2 3.3 3.3 3.2 3.3 3.6 3.4 3.4 3.7 3.6 3.6 3.8 3.7 3.7 3.7 4.0 4.1 4.0 3.9 3.7 3.9 4.2 4.1 4.3 4.5 4.6 4.8 4.8 4.9 5.1 5.2 5.3 5.3 5.4 5.6 5.5 5.6 5.5
3.0 3.0 2.8 3.0 2.8 2.8 2.8 3.0 3.5 3.2 3.2 3.5 3.4 3.4 3.6 3.6 3.8 3.8 3.6 3.7 3.8 3.8 3.8 3.7 3.6 3.8 4.1 4.1 4.1 4.3 4.6 4.8 4.7 4.7 5.2 5.4 5.3 5.6 5.8 5.9 6.0 5.9 5.6
2.9 2.8 2.7 2.8 2.7 3.1 3.4 3.1 2.9 3.0 2.9 2.8 2.7 2.8 2.8 3.0 2.9 3.1 3.2 3.3 3.5 3.7 3.9 4.0 4.1 4.4 4.7 4.9 4.7 4.5 4.6 5.2 5.6 5.8 5.8 5.7 5.7 5.7 5.7 5.9 5.8 5.7 5.8
3.6 3.6 3.5 3.5 3.7 3.7 3.7 3.6 3.6 3.6 3.8 3.5 3.3 3.2 3.1 3.2 3.4 3.4 3.5 3.6 3.6 3.8 4.1 4.6 4.7 4.7 4.4 4.1 4.3 5.0 5.5 5.5 5.4 5.3 5.6 5.6 5.7 5.9 5.9 5.7 5.7 5.9 5.9
4.1 4.0 3.9 3.8 3.6 3.6 3.5 3.5 3.7 3.6 3.7 3.7 3.6 3.8 3.7 4.0 4.0 4.2 4.4 4.4 4.6 4.6 4.5 4.5 4.5 4.3 4.2 4.7 5.0 5.2 5.2 5.1 5.1 5.4 5.6 5.7 5.6 5.6 5.6 5.6 5.7 5.8 5.8
4.7 4.8 4.9 4.9 4.9 4.9 4.9 4.6 4.3 4.3 4.1 4.0 3.9 4.0 4.1 4.1 4.0 4.1 3.9 3.9 4.1 3.8 3.8 3.7 4.1 4.5 4.8 4.9 4.9 4.8 4.7 4.8 5.1 5.3 5.5 5.6 5.6 5.6 5.7 5.7 5.8 5.9 6.0
5.0 5.1 5.1 5.1 4.9 5.0 5.2 5.2 5.0 4.9 4.8 4.8 4.9 4.8 4.5 4.5 4.4 4.2 4.1 4.1 4.4 4.7 4.9 4.8 4.8 4.8 4.7 4.5 4.4 4.6 4.7 4.8 4.9 5.2 5.4 5.4 5.5 5.6 5.7 5.8 5.8 5.7 6.1
5.2 5.2 5.2 5.3 5.4 5.4 5.3 5.2 5.2 5.2 5.2 5.1 4.9 4.8 4.9 4.9 4.9 4.9 4.9 4.9 4.9 4.9 5.0 4.9 4.8 4.8 4.8 4.7 4.7 4.7 4.9 5.0 5.0 5.1 5.3 5.5 5.6 5.6 5.8 5.8 5.9 6.1 6.2
5.3 5.2 5.2 5.3 5.3 5.2 5.1 4.9 4.8 4.8 4.9 4.8 4.9 4.9 4.8 4.7 4.8 4.8 4.8 4.7 4.7 4.8 4.9 4.9 4.8 4.8 4.9 4.9 4.8 4.9 5.0 5.2 5.2 5.2 5.3 5.2 5.1 5.2 5.6 5.9 6.0 6.1 5.9
5.5 5.5 5.4 5.3 5.1 4.9 4.7 4.6 4.5 4.4 4.4 4.4 4.4 4.5 4.6 4.6 4.6 4.6 4.5 4.3 4.3 4.5 4.6 4.6 4.7 4.9 4.7 4.7 4.8 4.9 4.8 4.7 4.7 4.6 4.7 4.8 5.0 5.3 5.4 5.4 5.4 5.5 5.6
Wind_Speed
11 11 11 11 10 9 13 14 12 10 7 5 5 4 4 3 3 6 9 9 8 7 8 5 4 6 4 4 4 3 5 5 3 4 4 4 5 6 5 9 9 10 13
9 12 11 13 12 11 13 14 13 11 7 5 4 3 4 3 3 5 5 8 7 6 7 6 4 4 4 5 3 3 2 2 3 2 3 3 2 3 4 4 4 6 11
9 13 13 12 10 11 12 13 13 12 9 8 5 4 4 4 3 3 3 3 8 5 7 7 6 4 5 4 3 3 3 3 2 4 2 2 3 3 1 4 4 5 4
5 8 11 12 12 10 9 11 12 12 9 9 7 8 6 5 4 4 4 4 9 6 7 7 8 5 4 5 3 3 2 3 3 2 3 4 3 3 2 1 3 4 5
7 6 8 9 8 8 8 8 10 11 10 8 8 7 6 4 4 4 7 5 5 8 7 8 8 5 4 4 6 4 5 3 3 2 2 3 3 3 2 3 2 2 3
3 6 7 8 8 8 8 8 9 10 8 8 8 8 8 8 8 5 6 4 4 4 6 8 7 7 6 5 4 4 6 5 5 3 4 2 2 1 2 2 2 4 2
2 4 8 7 8 9 8 7 8 8 8 8 8 8 8 8 9 7 5 6 4 4 5 4 5 3 6 7 6 5 5 4 4 4 3 3 3 2 2 2 1 2 1
5 6 4 6 7 8 8 8 8 7 8 8 8 7 7 5 5 6 5 5 5 5 6 5 7 8 9 7 7 4 4 5 5 6 5 4 3 3 2 2 2 2 2
6 6 7 6 5 6 7 7 6 7 7 7 6 6 5 6 6 7 6 5 5 5 7 7 6 7 8 7 6 4 4 5 4 5 5 3 4 4 3 3 3 3 1
8 7 7 8 7 5 4 4 5 5 5 6 6 6 5 5 6 7 7 7 6 7 7 7 7 6 6 6 5 5 4 6 4 4 5 3 3 4 3 3 2 2 2
9 8 9 9 8 9 9 6 5 6 4 4 3 4 4 4 5 5 6 6 7 8 7 7 7 7 7 6 5 6 5 5 5 5 5 4 5 3 3 3 2 2 2
16 13 15 16 16 15 15 14 14 13 10 8 6 6 5 4 4 4 5 6 6 6 6 6 6 7 7 7 6 5 5 5 5 4 4 3 2 5 3 3 4 3 3
17 16 16 14 14 14 14 13 12 10 9 9 9 8 8 8 7 7 8 8 8 7 7 7 6 6 6 5 5 5 5 4 4 3 3 3 2 1 1 1 3 3 3
17 15 14 12 12 12 12 12 12 10 7 7 7 7 6 5 5 6 6 5 5 4 3 4 4 5 7 6 7 6 5 4 4 4 4 4 5 5 4 3 3 3 3
17 15 13 12 12 11 10 10 9 10 9 9 9 8 7 6 5 4 4 4 4 4 4 4 4 4 5 4 6 5 5 5 4 4 4 5 6 8 7 3 2 1 2
15 14 13 13 13 13 12 11 10 10 8 8 8 8 8 8 8 8 7 6 5 4 3 3 3 3 1 6 11 7 3 5 6 5 5 4 8 7 11 11 12 8 4
12 13 11 10 10 10 10 10 10 9 9 9 9 9 8 7 7 7 6 7 6 6 6 5 4 3 3 6 5 7 3 2 3 4 4 4 5 8 6 10 11 10 14
11 10 10 8 7 7 9 9 8 8 7 6 6 7 8 7 6 6 5 4 3 3 2 1 2 2 3 8 8 8 2 3 4 4 5 5 5 4 4 5 5 5 5
7 7 7 8 8 6 7 8 7 7 6 5 5 5 5 6 6 5 4 3 3 3 2 2 2 2 3 7 9 6 2 3 5 5 5 5 6 10 14 7 6 6 6
6 9 7 8 7 8 5 6 6 7 7 5 5 6 5 4 4 4 4 4 4 5 3 5 3 5 3 8 10 7 1 3 5 5 5 13 10 14 16 7 5 5 4
9 9 7 6 6 6 6 7 8 8 5 6 7 7 6 6 5 3 4 4 4 5 4 5 4 4 5 5 12 12 5 6 6 5 5 4 14 15 16 17 5 7 7
10 8 8 8 8 8 6 7 8 9 7 6 8 7 6 6 6 6 5 6 4 4 4 4 4 4 4 11 12 14 15 12 7 7 5 5 14 16 17 14 16 19 16
10 9 8 9 8 7 7 8 8 7 8 8 8 8 8 8 8 7 7 6 4 4 4 5 5 4 5 4 12 14 15 15 9 6 9 17 18 19 17 17 19 19 7
10 9 10 10 9 8 10 9 10 9 8 9 9 8 8 8 7 6 6 6 5 4 4 5 5 4 4 4 3 6 5 12 10 11 8 10 14 17 14 13 11 7 7
10 10 8 10 11 9 9 9 12 9 9 9 8 8 7 8 7 7 6 6 5 5 4 5 5 3 4 6 12 11 7 5 10 10 6 6 7 6 7 6 6 5 6
9 10 11 11 11 11 11 10 9 8 7 8 8 7 7 5 6 5 5 13 19 19 20 21 15 8 19 20 20 21 20 20 20 9 2 3 5 6 5 6 6 6 10
Wind_Direction
201 180 171 157 154 156 159 162 161 170 156 146 145 147 160 139 117 103 132 124 132 124 120 119 100 86 94 98 102 104 85 42 62 107 76 71 82 79 77 73 66 59 58
183 169 162 158 165 162 163 164 167 168 159 151 155 140 145 145 130 122 123 131 132 133 132 122 114 112 101 82 79 106 100 78 33 151 143 132 67 61 81 75 82 68 63
176 160 164 162 155 167 167 166 168 168 162 155 153 135 102 86 103 141 139 152 141 133 121 122 116 94 104 100 81 71 97 131 17 52 140 122 149 134 135 89 82 85 73
113 146 162 163 167 168 155 164 168 167 164 164 156 156 160 158 175 154 156 160 146 140 127 122 120 114 114 108 107 72 76 109 134 51 37 59 112 150 136 118 123 108 90
163 177 158 160 160 154 158 161 165 167 169 167 157 154 157 175 149 149 146 151 146 145 146 134 124 114 106 110 115 92 76 65 105 99 102 61 48 59 123 153 166 77 108
74 147 142 143 148 151 156 161 164 170 165 162 161 166 182 172 152 146 153 156 150 150 151 141 132 126 121 117 108 98 92 89 86 86 61 80 115 104 84 115 144 145 153
153 142 146 154 153 156 157 160 160 168 161 164 177 180 194 157 155 156 157 157 156 155 167 148 139 130 125 123 123 116 112 107 103 96 92 72 68 57 75 81 32 122 154
60 41 119 154 154 148 151 162 165 165 163 169 185 184 176 150 152 155 153 161 161 157 160 154 149 136 133 131 126 116 113 107 106 98 86 102 87 65 68 90 100 3 260
102 54 8 16 121 130 146 162 169 168 174 172 173 175 168 148 151 157 155 158 145 147 149 150 139 139 145 148 142 132 126 120 113 115 110 114 106 85 82 73 87 124 25
81 50 15 14 25 85 133 150 169 174 166 168 169 173 196 170 163 155 158 159 147 141 144 148 145 146 146 136 130 121 124 128 126 126 127 111 115 111 106 104 85 95 122
64 42 15 10 21 30 31 40 57 93 90 86 85 116 126 127 122 135 147 143 133 145 153 156 152 149 145 137 117 102 97 89 94 93 97 105 118 110 133 130 117 108 118
52 39 27 22 23 26 25 25 27 35 26 27 54 65 69 83 101 104 105 117 133 138 148 139 135 116 107 102 113 116 121 129 128 140 154 154 155 152 155 142 158 168 181
44 41 34 28 21 17 22 18 18 22 27 36 46 42 43 48 48 54 59 65 75 69 74 85 103 112 117 128 134 135 137 138 134 128 107 102 26 75 112 247 193 186 201
33 34 34 32 29 25 21 18 15 12 19 36 50 45 29 47 52 55 63 76 88 107 111 134 152 158 155 153 153 157 161 164 172 177 189 195 203 205 212 232 230 224 217
24 23 23 20 19 20 18 15 16 20 25 40 46 44 38 41 57 78 101 116 133 139 144 157 169 167 168 172 166 168 167 177 187 204 206 214 219 230 218 214 213 264 250
13 20 20 20 16 13 11 9 8 10 17 29 38 38 44 34 36 32 34 46 58 68 113 167 169 150 206 208 185 180 194 205 213 212 206 209 227 243 240 240 237 223 207
5 9 11 10 10 4 5 8 5 10 25 26 21 23 27 40 40 28 25 34 30 28 26 25 12 23 357 295 252 231 206 202 232 232 227 222 217 229 211 247 260 269 268
357 358 354 353 5 3 2 352 360 1 9 27 29 17 12 9 12 16 21 17 5 351 339 259 212 202 256 260 258 261 320 312 276 258 238 226 236 229 236 226 227 238 258
344 334 343 334 340 357 352 343 345 351 349 1 1 3 0 349 341 338 319 309 305 305 291 286 305 272 240 255 257 260 316 290 269 266 262 232 220 227 253 242 232 233 242
332 328 330 324 335 334 329 332 331 328 328 329 337 299 291 282 273 317 324 312 298 282 274 263 257 270 271 271 265 258 217 261 270 277 268 266 250 241 243 238 224 237 219
313 311 318 310 305 321 315 315 316 313 315 317 306 307 311 307 292 280 282 278 278 284 292 284 285 269 262 266 268 265 254 248 258 253 250 243 258 261 260 258 222 227 230
320 322 319 315 318 315 308 301 302 314 324 316 300 298 301 293 294 297 291 282 271 258 253 262 265 263 253 269 267 265 262 254 253 254 258 266 271 268 266 264 262 262 261
317 318 314 309 309 307 307 306 309 309 303 300 297 299 297 293 289 286 281 277 262 247 248 259 263 251 256 238 267 269 265 265 266 261 259 263 262 262 263 274 278 276 272
314 313 313 302 311 315 317 316 313 313 305 298 298 296 292 285 272 269 272 268 254 252 260 264 262 255 266 268 253 258 269 278 284 285 285 280 271 262 257 259 260 260 267
308 303 310 313 308 319 320 318 312 311 302 297 292 290 290 286 282 270 267 267 262 240 241 247 254 246 249 256 258 249 235 233 246 252 242 250 253 255 261 263 260 250 247
313 317 309 317 318 315 310 306 304 302 297 295 292 288 293 301 295 292 285 280 283 280 274 271 261 235 250 253 254 260 266 268 263 256 261 237 251 253 255 252 247 244 256